When you browse on this site, cookies collect data to enhance your experience and personalize the content and advertising you see.
Visit our Privacy Policy to learn more. By continuing to use the site, you agree to this use of cookies and data.
  • In Hungary
  • List of Countries
  • For 7 days
  • Water Temperature
  • Satellite Maps
  • Weather Map
  • News
  • Weather Widgets
  • user-avatar
    Login

    Hourly Weather Nuwejba

    Today, 20 January, Sunday

    Time Temperature Precipitation Wind Pressure Humidity
    00:00 +10°C° 0 mm 1 mps 693 mmHg 37%
    01:00 +9°C° 0 mm 1 mps 693 mmHg 37%
    02:00 +9°C° 0 mm 1 mps 692 mmHg 40%
    03:00 +9°C° 0 mm 1 mps 692 mmHg 40%
    04:00 +8°C° 0 mm 1 mps 692 mmHg 40%
    05:00 +8°C° 0 mm 1 mps 692 mmHg 40%
    06:00 +9°C° 0 mm 1 mps 693 mmHg 37%
    07:00 +10°C° 0 mm 1 mps 693 mmHg 35%
    08:00 +13°C° 0 mm 1 mps 693 mmHg 31%
    09:00 +14°C° 0 mm 1 mps 694 mmHg 28%
    10:00 +15°C° 0 mm 1 mps 694 mmHg 25%
    11:00 +18°C° 0 mm 1 mps 694 mmHg 22%
    12:00 +19°C° 0 mm 1 mps 694 mmHg 19%
    13:00 +20°C° 0 mm 1 mps 693 mmHg 17%
    14:00 +19°C° 0 mm 2 mps 693 mmHg 14%
    15:00 +19°C° 0 mm 2 mps 693 mmHg 15%
    16:00 +19°C° 0 mm 1 mps 693 mmHg 15%
    17:00 +18°C° 0 mm 1 mps 693 mmHg 16%
    18:00 +16°C° 0 mm 1 mps 693 mmHg 18%
    19:00 +15°C° 0 mm 1 mps 693 mmHg 19%
    20:00 +14°C° 0 mm 1 mps 693 mmHg 21%
    21:00 +14°C° 0 mm 1 mps 693 mmHg 21%
    22:00 +13°C° 0 mm 1 mps 693 mmHg 22%
    23:00 +12°C° 0 mm 0 mps 693 mmHg 22%

    Tomorrow, 21 January, Monday

    Time Temperature Precipitation Wind Pressure Humidity
    00:00 +12°C° 0 mm 0 mps 693 mmHg 23%
    01:00 +12°C° 0 mm 0 mps 693 mmHg 25%
    02:00 +11°C° 0 mm 0 mps 692 mmHg 26%
    03:00 +11°C° 0 mm 0 mps 692 mmHg 28%
    04:00 +11°C° 0 mm 0 mps 692 mmHg 31%
    05:00 +11°C° 0 mm 0 mps 692 mmHg 33%
    06:00 +12°C° 0 mm 0 mps 692 mmHg 32%
    07:00 +13°C° 0 mm 0 mps 693 mmHg 32%
    08:00 +15°C° 0 mm 1 mps 693 mmHg 31%
    09:00 +16°C° 0 mm 1 mps 693 mmHg 29%
    10:00 +19°C° 0 mm 1 mps 694 mmHg 26%
    11:00 +20°C° 0 mm 1 mps 694 mmHg 23%
    12:00 +21°C° 0 mm 1 mps 694 mmHg 22%
    13:00 +20°C° 0 mm 2 mps 693 mmHg 20%
    14:00 +21°C° 0 mm 2 mps 693 mmHg 18%
    15:00 +20°C° 0 mm 2 mps 693 mmHg 19%
    16:00 +20°C° 0 mm 1 mps 692 mmHg 20%
    17:00 +19°C° 0 mm 1 mps 692 mmHg 21%
    18:00 +18°C° 0 mm 1 mps 692 mmHg 23%
    19:00 +16°C° 0 mm 1 mps 692 mmHg 25%
    20:00 +15°C° 0 mm 1 mps 692 mmHg 27%
    21:00 +14°C° 0 mm 1 mps 692 mmHg 26%
    22:00 +14°C° 0 mm 1 mps 692 mmHg 26%
    23:00 +13°C° 0 mm 1 mps 692 mmHg 26%

    Day after tomorrow, 22 January, Tuesday

    Time Temperature Precipitation Wind Pressure Humidity
    00:00 +13°C° 0 mm 1 mps 692 mmHg 24%
    01:00 +12°C° 0 mm 1 mps 691 mmHg 23%
    02:00 +12°C° 0 mm 1 mps 691 mmHg 22%
    03:00 +11°C° 0 mm 1 mps 691 mmHg 21%
    04:00 +11°C° 0 mm 1 mps 691 mmHg 20%
    05:00 +10°C° 0 mm 1 mps 690 mmHg 20%
    06:00 +11°C° 0 mm 1 mps 691 mmHg 18%
    07:00 +12°C° 0 mm 1 mps 691 mmHg 17%
    08:00 +12°C° 0 mm 0 mps 692 mmHg 16%
    09:00 +15°C° 0 mm 1 mps 692 mmHg 15%
    10:00 +18°C° 0 mm 1 mps 693 mmHg 14%
    11:00 +20°C° 0 mm 1 mps 693 mmHg 13%
    12:00 +20°C° 0 mm 1 mps 693 mmHg 13%
    13:00 +21°C° 0 mm 1 mps 692 mmHg 12%
    14:00 +21°C° 0 mm 2 mps 692 mmHg 12%
    15:00 +19°C° 0 mm 2 mps 692 mmHg 14%
    16:00 +19°C° 0 mm 1 mps 692 mmHg 15%
    17:00 +18°C° 0 mm 1 mps 692 mmHg 17%
    18:00 +16°C° 0 mm 1 mps 692 mmHg 21%
    19:00 +15°C° 0 mm 1 mps 692 mmHg 24%
    20:00 +14°C° 0 mm 1 mps 692 mmHg 27%
    21:00 +13°C° 0 mm 1 mps 692 mmHg 30%
    22:00 +12°C° 0 mm 1 mps 692 mmHg 33%
    23:00 +12°C° 0 mm 1 mps 692 mmHg 36%

    23 January, Wednesday

    Time Temperature Precipitation Wind Pressure Humidity
    00:00 +11°C° 0 mm 1 mps 691 mmHg 38%
    01:00 +11°C° 0 mm 1 mps 691 mmHg 40%
    02:00 +10°C° 0 mm 1 mps 691 mmHg 42%
    03:00 +10°C° 0 mm 1 mps 691 mmHg 43%
    04:00 +10°C° 0 mm 1 mps 690 mmHg 44%
    05:00 +9°C° 0 mm 1 mps 690 mmHg 45%
    06:00 +10°C° 0 mm 1 mps 691 mmHg 43%
    07:00 +11°C° 0 mm 1 mps 691 mmHg 40%
    08:00 +12°C° 0 mm 1 mps 692 mmHg 38%
    09:00 +14°C° 0 mm 1 mps 692 mmHg 33%
    10:00 +16°C° 0 mm 1 mps 692 mmHg 28%
    11:00 +19°C° 0 mm 1 mps 692 mmHg 23%
    12:00 +19°C° 0 mm 2 mps 692 mmHg 21%
    13:00 +19°C° 0 mm 2 mps 691 mmHg 18%
    14:00 +20°C° 0 mm 2 mps 691 mmHg 16%
    15:00 +19°C° 0 mm 2 mps 691 mmHg 17%
    16:00 +19°C° 0 mm 2 mps 690 mmHg 18%
    17:00 +18°C° 0 mm 2 mps 690 mmHg 19%
    18:00 +17°C° 0 mm 2 mps 690 mmHg 22%
    19:00 +16°C° 0 mm 2 mps 690 mmHg 24%
    20:00 +15°C° 0 mm 2 mps 691 mmHg 26%
    21:00 +14°C° 0 mm 2 mps 690 mmHg 28%
    22:00 +14°C° 0 mm 2 mps 690 mmHg 30%
    23:00 +13°C° 0 mm 2 mps 690 mmHg 31%

    24 January, Thursday

    Time Temperature Precipitation Wind Pressure Humidity
    00:00 +13°C° 0 mm 2 mps 690 mmHg 31%
    01:00 +13°C° 0 mm 2 mps 689 mmHg 32%
    02:00 +12°C° 0 mm 2 mps 689 mmHg 32%
    03:00 +12°C° 0 mm 2 mps 689 mmHg 32%
    04:00 +12°C° 0 mm 2 mps 689 mmHg 32%
    05:00 +12°C° 0 mm 2 mps 688 mmHg 32%
    06:00 +13°C° 0 mm 2 mps 689 mmHg 31%
    07:00 +14°C° 0 mm 2 mps 689 mmHg 30%
    08:00 +15°C° 0 mm 2 mps 689 mmHg 30%
    09:00 +17°C° 0 mm 4 mps 690 mmHg 26%
    10:00 +19°C° 0 mm 5 mps 690 mmHg 23%
    11:00 +21°C° 0 mm 6 mps 690 mmHg 20%
    12:00 +22°C° 0 mm 7 mps 690 mmHg 19%
    13:00 +22°C° 0 mm 7 mps 689 mmHg 19%
    14:00 +23°C° 0 mm 7 mps 689 mmHg 18%
    15:00 +22°C° 0 mm 6 mps 689 mmHg 22%
    16:00 +21°C° 0 mm 5 mps 689 mmHg 26%
    17:00 +20°C° 0 mm 4 mps 689 mmHg 30%
    18:00 +18°C° 0 mm 4 mps 689 mmHg 37%
    19:00 +17°C° 0 mm 3 mps 690 mmHg 44%
    20:00 +16°C° 0 mm 2 mps 690 mmHg 51%
    21:00 +16°C° 0 mm 2 mps 690 mmHg 57%
    22:00 +15°C° 0 mm 2 mps 690 mmHg 64%
    23:00 +14°C° 0 mm 2 mps 690 mmHg 71%

    25 January, Friday

    Time Temperature Precipitation Wind Pressure Humidity
    00:00 +14°C° 0 mm 2 mps 690 mmHg 74%
    01:00 +14°C° 0 mm 2 mps 690 mmHg 77%
    02:00 +14°C° 0 mm 1 mps 690 mmHg 81%
    03:00 +14°C° 0.1 mm 1 mps 690 mmHg 82%
    04:00 +14°C° 0.1 mm 1 mps 690 mmHg 84%
    05:00 +14°C° 0.1 mm 1 mps 690 mmHg 86%
    06:00 +14°C° 0.1 mm 1 mps 690 mmHg 82%
    07:00 +15°C° 0.1 mm 1 mps 691 mmHg 78%
    08:00 +16°C° 0.1 mm 1 mps 691 mmHg 74%
    09:00 +18°C° 0.1 mm 2 mps 691 mmHg 67%
    10:00 +19°C° 0.1 mm 3 mps 692 mmHg 60%
    11:00 +21°C° 0.1 mm 5 mps 692 mmHg 54%
    12:00 +22°C° 0.1 mm 5 mps 691 mmHg 48%
    13:00 +22°C° 0.1 mm 5 mps 691 mmHg 43%
    14:00 +23°C° 0.1 mm 5 mps 690 mmHg 38%
    15:00 +22°C° 0.1 mm 5 mps 690 mmHg 42%
    16:00 +21°C° 0.1 mm 4 mps 690 mmHg 46%
    17:00 +20°C° 0.1 mm 3 mps 690 mmHg 49%
    18:00 +20°C° 0.1 mm 2 mps 690 mmHg 54%
    19:00 +19°C° 0.1 mm 2 mps 691 mmHg 59%
    20:00 +18°C° 0.1 mm 2 mps 691 mmHg 64%
    21:00 +17°C° 0 mm 2 mps 691 mmHg 63%
    22:00 +17°C° 0 mm 2 mps 691 mmHg 61%
    23:00 +17°C° 0 mm 2 mps 691 mmHg 60%
    Show more